Flight Track Log - Related Links

Times and Time Zones

All times are in EDT time to prevent confusion due to time zone crossing. See the ASH3732 flight status page for this flight to view local times or setup timezone preferences in your user account.

Time Position Orientation Groundspeed Altitude Reporting Facility
EDT Latitude Longitude Course Direction KTS MPH feet Rate Location/Type
08:36PM 42.0000 -87.9333 31° Northeast 164 189 1,600  Level Chicago TRACON
08:37PM 42.0333 -87.9833 312° West 203 234 2,900 1,842 Climbing Chicago TRACON
08:38PM 42.0833 -88.0333 323° Northwest 253 291 5,100 1,100 Climbing Chicago TRACON
08:39PM 42.1500 -88.0500 349° North 264 304 5,100 594 Level Chicago TRACON
08:39PM 42.2061 -88.0483 North 262 302 6,100 2,214 Climbing Chicago Center
08:40PM 42.0347 -87.1166 74° East  Level Estimated
08:41PM 42.1356 -87.0343 31° Northeast  Level FlightAware Approximate
08:41PM 42.2842 -88.0483 360° North 273 314 8,900  Level Chicago Center
08:42PM 42.3653 -88.0439 North 288 331 11,400 2,419 Climbing Chicago Center
08:43PM 42.4511 -88.0394 North 306 352 13,900 2,226 Climbing Chicago Center
08:44PM 42.5333 -87.9975 21° North 326 375 16,000 2,032 Climbing Chicago Center
08:45PM 42.6136 -87.9256 33° Northeast 344 396 18,100 1,935 Climbing Chicago Center
08:47PM 42.7989 -87.7614 33° Northeast 368 423 22,000 1,581 Climbing Chicago Center
08:48PM 42.8883 -87.6761 35° Northeast 378 435 23,000 484 Climbing Chicago Center
08:49PM 42.9381 -87.5286 65° Northeast 433 498 23,000  Level Chicago Center
08:50PM 42.9647 -87.3622 78° East 450 518 23,000  Level Chicago Center
08:51PM 42.9914 -87.1961 78° East 449 517 23,000  Level Chicago Center
08:52PM 43.0186 -87.0264 78° East 457 526 23,000  Level Chicago Center
08:53PM 43.0444 -86.8583 78° East 454 522 23,000  Level Chicago Center
08:54PM 43.0753 -86.6589 78° East 448 516 23,000  Level Chicago Center
08:55PM 43.1014 -86.4869 78° East 461 531 23,000  Level Chicago Center
08:56PM 43.1292 -86.3097 78° East 473 544 23,000  Level Chicago Center
08:57PM 43.1569 -86.1269 78° East 481 554 23,000  Level Chicago Center
08:58PM 43.1806 -85.9378 80° East 489 563 23,000  Level Chicago Center
08:59PM 43.1986 -85.7494 82° East 491 565 23,000  Level Chicago Center
09:00PM 43.2161 -85.5644 83° East 490 564 23,000  Level Chicago Center
09:01PM 43.2339 -85.3856 82° East 478 550 23,000  Level Chicago Center
09:02PM 43.2436 -85.2100 86° East 465 535 23,000  Level Chicago Center
09:03PM 43.2069 -85.0017 104° East 468 539 23,000  Level Chicago Center
09:04PM 43.1725 -84.8275 105° East 475 547 23,000  Level Chicago Center
09:05PM 43.1208 -84.6611 113° Southeast 472 543 23,000  Level Chicago Center
09:06PM 43.0700 -84.4925 112° Southeast 479 551 23,000 -1,113 Level Chicago Center
09:07PM 43.0194 -84.3272 113° Southeast 474 545 20,700 -2,250 Descending Chicago Center
09:08PM 42.9900 -84.2364 114° Southeast 467 537 19,400 -2,667 Descending Cleveland Center
09:08PM 42.9636 -84.1525 113° Southeast 435 501 17,900 -2,500 Descending Cleveland Center
09:09PM 42.9425 -84.0861 113° Southeast 444 511 16,900 -2,557 Descending Cleveland Center
09:09PM 42.9181 -84.0025 112° Southeast 416 479 15,300 -1,900 Descending Cleveland Center
09:10PM 42.8911 -83.9217 114° Southeast 431 496 15,000 -2,600 Descending Cleveland Center
09:10PM 42.8722 -83.8525 110° East 401 461 12,700 -2,900 Descending Cleveland Center
09:11PM 42.8550 -83.8036 116° Southeast 409 471 12,100 -764 Descending Cleveland Center
09:11PM 42.8317 -83.7456 119° Southeast 381 438 12,000 -400 Descending Cleveland Center
09:12PM 42.7889 -83.7039 144° Southeast 372 428 11,700 -1,315 Descending Cleveland Center
09:13PM 42.7272 -83.6725 159° South 326 375 10,400 -1,500 Descending Cleveland Center
09:13PM 42.7025 -83.6572 156° South 347 399 10,200 -1,377 Descending Cleveland Center
09:14PM 42.6492 -83.6292 159° South 296 341 9,000 -1,200 Descending Cleveland Center
09:14PM 42.6289 -83.6114 147° Southeast 313 360 9,000  Level Cleveland Center
09:15PM 42.6039 -83.5283 112° Southeast 259 298 9,000 100 Level Cleveland Center
09:15PM 42.6000 -83.5167 114° Southeast 270 311 9,100  Climbing Cleveland Center
09:16PM 42.5833 -83.4369 106° East 276 318 9,000 -100 Descending Cleveland Center
09:16PM 42.5775 -83.4142 109° East 264 304 9,000 -1,574 Level Cleveland Center
09:17PM 42.5564 -83.3428 112° Southeast 259 298 7,400 -1,900 Descending Cleveland Center
09:17PM 42.5464 -83.3253 128° Southeast 264 304 7,100 -1,964 Descending Cleveland Center
09:17PM 42.5164 -83.2706 127° Southeast 257 296 5,600 -1,700 Descending Cleveland Center
09:18PM 42.5044 -83.2475 125° Southeast 264 304 5,400 -1,574 Descending Cleveland Center
09:19PM 42.4656 -83.2178 151° Southeast 230 265 4,000 -874 Descending Cleveland Center
09:20PM 42.4067 -83.2322 190° South 167 192 3,900 -142 Descending Cleveland Center
09:21PM 42.3642 -83.2669 211° Southwest 172 198 3,700 -590 Descending Cleveland Center
09:22PM 42.3217 -83.2989 209° Southwest 170 196 2,700 -931 Descending Cleveland Center
09:23PM 42.2836 -83.3253 207° Southwest 168 193 1,900 -797 Descending Cleveland Center
09:24PM 42.2411 -83.3572 209° Southwest 124 143 1,000 -740 Descending Cleveland Center

Login

Don't have an account? Register now (free) for customized features, flight alerts, and more!